When you browse on this site, cookies collect data to enhance your experience and personalize the content and advertising you see.
Visit our Privacy Policy to learn more. By continuing to use the site, you agree to this use of cookies and data.
  • In Sweden
  • List of Countries
  • For 7 days
  • Water Temperature
  • Weather Map
  • Weather Widgets
  • user-avatar
    Login

    Hourly Weather Ahativka

    Today, 26 May, Tuesday

    Time Temperature Precipitation Wind Pressure Humidity
    00:00 +7°C° 0.5 mm 4 mps 743 mmHg 97%
    01:00 +8°C° 0.5 mm 4 mps 743 mmHg 97%
    02:00 +9°C° 0 mm 3 mps 743 mmHg 98%
    03:00 +9°C° 0.2 mm 3 mps 743 mmHg 98%
    04:00 +9°C° 0.2 mm 3 mps 743 mmHg 97%
    05:00 +9°C° 0.2 mm 3 mps 743 mmHg 97%
    06:00 +9°C° 0.2 mm 3 mps 743 mmHg 97%
    07:00 +8°C° 0.2 mm 4 mps 743 mmHg 96%
    08:00 +8°C° 0 mm 4 mps 744 mmHg 95%
    09:00 +10°C° 0.4 mm 4 mps 744 mmHg 94%
    10:00 +10°C° 0.4 mm 4 mps 744 mmHg 92%
    11:00 +10°C° 0.4 mm 4 mps 744 mmHg 91%
    12:00 +10°C° 0.4 mm 4 mps 745 mmHg 91%
    13:00 +10°C° 0.4 mm 3 mps 745 mmHg 91%
    14:00 +10°C° 0.4 mm 3 mps 745 mmHg 91%
    15:00 +11°C° 0.2 mm 3 mps 745 mmHg 91%
    16:00 +11°C° 0.2 mm 3 mps 745 mmHg 91%
    17:00 +11°C° 0.2 mm 3 mps 744 mmHg 91%
    18:00 +11°C° 0.2 mm 3 mps 745 mmHg 92%
    19:00 +10°C° 0.2 mm 3 mps 745 mmHg 93%
    20:00 +10°C° 0.2 mm 2 mps 745 mmHg 95%
    21:00 +10°C° 0.4 mm 2 mps 745 mmHg 96%
    22:00 +9°C° 0.4 mm 2 mps 745 mmHg 96%
    23:00 +9°C° 0.4 mm 2 mps 745 mmHg 97%

    Tomorrow, 27 May, Wednesday

    Time Temperature Precipitation Wind Pressure Humidity
    00:00 +9°C° 0.3 mm 2 mps 745 mmHg 97%
    01:00 +9°C° 0.3 mm 2 mps 744 mmHg 97%
    02:00 +9°C° 0.3 mm 2 mps 744 mmHg 98%
    03:00 +9°C° 0.3 mm 3 mps 744 mmHg 98%
    04:00 +9°C° 0.3 mm 3 mps 744 mmHg 98%
    05:00 +9°C° 0.3 mm 3 mps 744 mmHg 98%
    06:00 +9°C° 0.3 mm 3 mps 744 mmHg 97%
    07:00 +9°C° 0.3 mm 3 mps 744 mmHg 97%
    08:00 +10°C° 0.3 mm 3 mps 745 mmHg 97%
    09:00 +11°C° 0.3 mm 3 mps 745 mmHg 93%
    10:00 +11°C° 0.3 mm 3 mps 745 mmHg 90%
    11:00 +12°C° 0.3 mm 3 mps 745 mmHg 87%
    12:00 +13°C° 0.4 mm 3 mps 744 mmHg 84%
    13:00 +14°C° 0.4 mm 3 mps 744 mmHg 81%
    14:00 +14°C° 0.4 mm 3 mps 744 mmHg 78%
    15:00 +14°C° 0.2 mm 4 mps 743 mmHg 78%
    16:00 +15°C° 0.2 mm 4 mps 743 mmHg 78%
    17:00 +15°C° 0.2 mm 4 mps 743 mmHg 78%
    18:00 +13°C° 0.2 mm 3 mps 743 mmHg 82%
    19:00 +12°C° 0.2 mm 3 mps 743 mmHg 87%
    20:00 +12°C° 0.2 mm 2 mps 743 mmHg 92%
    21:00 +10°C° 0 mm 2 mps 743 mmHg 92%
    22:00 +10°C° 0 mm 2 mps 743 mmHg 93%
    23:00 +9°C° 0 mm 2 mps 743 mmHg 93%

    Day after tomorrow, 28 May, Thursday

    Time Temperature Precipitation Wind Pressure Humidity
    00:00 +9°C° 0 mm 2 mps 743 mmHg 93%
    01:00 +8°C° 0 mm 2 mps 742 mmHg 94%
    02:00 +8°C° 0 mm 2 mps 742 mmHg 94%
    03:00 +8°C° 0 mm 2 mps 742 mmHg 95%
    04:00 +8°C° 0 mm 2 mps 742 mmHg 95%
    05:00 +8°C° 0 mm 2 mps 741 mmHg 95%
    06:00 +10°C° 0 mm 3 mps 741 mmHg 91%
    07:00 +11°C° 0 mm 3 mps 741 mmHg 87%
    08:00 +13°C° 0 mm 3 mps 741 mmHg 84%
    09:00 +14°C° 0.3 mm 4 mps 741 mmHg 79%
    10:00 +15°C° 0.3 mm 4 mps 740 mmHg 75%
    11:00 +17°C° 0.3 mm 4 mps 740 mmHg 71%
    12:00 +18°C° 0.4 mm 4 mps 739 mmHg 71%
    13:00 +18°C° 0.4 mm 4 mps 739 mmHg 71%
    14:00 +18°C° 0.4 mm 4 mps 738 mmHg 71%
    15:00 +18°C° 0.6 mm 4 mps 738 mmHg 73%
    16:00 +18°C° 0.6 mm 4 mps 738 mmHg 75%
    17:00 +17°C° 0.6 mm 4 mps 737 mmHg 77%
    18:00 +15°C° 0.7 mm 4 mps 737 mmHg 81%
    19:00 +14°C° 0.7 mm 3 mps 737 mmHg 85%
    20:00 +12°C° 0.7 mm 3 mps 737 mmHg 89%
    21:00 +12°C° 0.1 mm 3 mps 736 mmHg 90%
    22:00 +11°C° 0.1 mm 4 mps 736 mmHg 92%
    23:00 +11°C° 0.1 mm 4 mps 736 mmHg 94%

    29 May, Friday

    Time Temperature Precipitation Wind Pressure Humidity
    00:00 +10°C° 0 mm 4 mps 736 mmHg 94%
    01:00 +10°C° 0 mm 4 mps 736 mmHg 95%
    02:00 +8°C° 0 mm 4 mps 736 mmHg 96%
    03:00 +8°C° 0 mm 4 mps 736 mmHg 96%
    04:00 +8°C° 0 mm 4 mps 736 mmHg 97%
    05:00 +8°C° 0 mm 4 mps 736 mmHg 98%
    06:00 +10°C° 0 mm 4 mps 736 mmHg 96%
    07:00 +10°C° 0 mm 5 mps 736 mmHg 95%
    08:00 +10°C° 0 mm 5 mps 736 mmHg 93%
    09:00 +12°C° 0.1 mm 5 mps 737 mmHg 91%
    10:00 +13°C° 0.1 mm 5 mps 737 mmHg 88%
    11:00 +14°C° 0.1 mm 5 mps 737 mmHg 86%
    12:00 +14°C° 0.3 mm 5 mps 737 mmHg 84%
    13:00 +15°C° 0.3 mm 5 mps 737 mmHg 81%
    14:00 +16°C° 0.3 mm 5 mps 737 mmHg 79%
    15:00 +15°C° 0.5 mm 4 mps 737 mmHg 80%
    16:00 +15°C° 0.5 mm 4 mps 737 mmHg 82%
    17:00 +15°C° 0.5 mm 4 mps 737 mmHg 83%
    18:00 +14°C° 0.3 mm 4 mps 737 mmHg 86%
    19:00 +13°C° 0.3 mm 4 mps 737 mmHg 88%
    20:00 +12°C° 0.3 mm 3 mps 737 mmHg 91%
    21:00 +12°C° 0 mm 3 mps 737 mmHg 93%
    22:00 +11°C° 0 mm 3 mps 737 mmHg 94%
    23:00 +10°C° 0 mm 3 mps 738 mmHg 96%

    30 May, Saturday

    Time Temperature Precipitation Wind Pressure Humidity
    00:00 +10°C° 0 mm 3 mps 737 mmHg 97%
    01:00 +9°C° 0 mm 3 mps 737 mmHg 97%
    02:00 +9°C° 0 mm 3 mps 737 mmHg 98%
    03:00 +9°C° 0 mm 3 mps 737 mmHg 98%
    04:00 +9°C° 0 mm 3 mps 737 mmHg 98%
    05:00 +9°C° 0 mm 3 mps 737 mmHg 98%
    06:00 +10°C° 0 mm 3 mps 737 mmHg 93%
    07:00 +12°C° 0 mm 4 mps 737 mmHg 88%
    08:00 +13°C° 0 mm 4 mps 737 mmHg 84%
    09:00 +14°C° 0 mm 5 mps 737 mmHg 79%
    10:00 +15°C° 0 mm 5 mps 737 mmHg 74%
    11:00 +16°C° 0 mm 6 mps 737 mmHg 69%
    12:00 +17°C° 0 mm 6 mps 737 mmHg 67%
    13:00 +17°C° 0 mm 6 mps 737 mmHg 65%
    14:00 +19°C° 0 mm 6 mps 736 mmHg 64%
    15:00 +17°C° 0 mm 6 mps 736 mmHg 65%
    16:00 +17°C° 0 mm 5 mps 737 mmHg 67%
    17:00 +17°C° 0 mm 5 mps 737 mmHg 69%
    18:00 +15°C° 0 mm 4 mps 737 mmHg 73%
    19:00 +14°C° 0 mm 3 mps 737 mmHg 78%
    20:00 +12°C° 0 mm 3 mps 736 mmHg 83%
    21:00 +11°C° 0 mm 3 mps 737 mmHg 84%
    22:00 +11°C° 0 mm 3 mps 737 mmHg 84%
    23:00 +10°C° 0 mm 3 mps 737 mmHg 84%

    31 May, Sunday

    Time Temperature Precipitation Wind Pressure Humidity
    00:00 +9°C° 0 mm 3 mps 737 mmHg 84%
    01:00 +9°C° 0 mm 3 mps 737 mmHg 83%
    02:00 +8°C° 0 mm 3 mps 737 mmHg 83%
    03:00 +8°C° 0 mm 3 mps 737 mmHg 86%
    04:00 +8°C° 0 mm 3 mps 737 mmHg 88%
    05:00 +8°C° 0 mm 3 mps 737 mmHg 91%
    06:00 +10°C° 0 mm 4 mps 737 mmHg 86%
    07:00 +12°C° 0 mm 4 mps 737 mmHg 80%
    08:00 +13°C° 0 mm 5 mps 737 mmHg 75%
    09:00 +14°C° 0 mm 5 mps 737 mmHg 72%
    10:00 +16°C° 0 mm 5 mps 737 mmHg 69%
    11:00 +17°C° 0 mm 5 mps 737 mmHg 67%
    12:00 +17°C° 0 mm 5 mps 737 mmHg 65%
    13:00 +19°C° 0 mm 5 mps 737 mmHg 64%
    14:00 +19°C° 0 mm 5 mps 737 mmHg 63%
    15:00 +19°C° 0 mm 4 mps 737 mmHg 64%
    16:00 +19°C° 0 mm 4 mps 736 mmHg 65%
    17:00 +19°C° 0 mm 4 mps 736 mmHg 67%
    18:00 +17°C° 0 mm 3 mps 736 mmHg 73%
    19:00 +15°C° 0 mm 2 mps 736 mmHg 79%
    20:00 +14°C° 0 mm 2 mps 736 mmHg 85%
    21:00 +13°C° 0 mm 1 mps 737 mmHg 86%
    22:00 +12°C° 0 mm 1 mps 737 mmHg 87%
    23:00 +11°C° 0 mm 1 mps 737 mmHg 88%
    Show more